(52) Europa
ephemeris date magn radius delta ra dec elong phase
Today27 Jul 202612.12.746 AU3.736 AU07h36m+19°40'11.2°4.1°
Opposition24 Feb 202710.52.829 AU1.842 AU10h39m+14°11'174.6°1.9°
(52) Europa - 2026-07-27
astro.vanbuitenen.nl


 
-1 year
-1 month
-1 day
Now
+1 day
+1 month
+1 year

The interactive orbit chart above shows the body's path through the solar system and its position at the given date. Green and blue lines are shown perpendicular to the ecliptic plane: Green if the path is above the ecliptic plane, blue if it is below. (Left-click and drag to rotate the view; Right-click and drag to move the view; Use scroll wheel to zoom in our out.)

The orbital elements of Europa are:

            e (Eccentricity)                : 0.1124827
            a (Semimajor axis)              : 3.0941359
            i (Inclination)                 : 7.48150
            Ω (Longitude of ascending node) : 128.57341
            ω (Argument of perihelion)      : 342.80398
            M (Mean anomaly)                : 348.92279
            Epoch                           : 2026 Jun 09

            L (Longitude of perihelion)     : 111.51525
            B (Latitude of perihelion)      : -2.20611
            P (Orbital period in years)     : 5.44            
        

The light curve chart below shows the estimated development of the minor planet's magnitude.


The all-sky chart below shows the path of the minor planet over the same period as the light curve. The current position is marked yellow.





The following chart shows the path of the minor planet in the next few days. The field of view is optimized for (~10x50) binoculars and finderscopes.




Ephemerides:
Date       Time       RA (2000)    DEC (2000)    delta   radius  elong  phase   PA    magn
2026-07-27 00:00 UT   07 36 15.2   +19 40 34     3.736    2.746   11.2    4.1   270   12.1 
2026-07-27 09:08 UT   07 36 55.7   +19 39 26     3.735    2.746   11.4    4.2   270   12.1 
2026-07-28 00:00 UT   07 38 01.7   +19 37 34     3.733    2.746   11.7    4.3   270   12.1 
2026-07-29 00:00 UT   07 39 48.2   +19 34 31     3.730    2.746   12.3    4.5   271   12.1 
2026-07-30 00:00 UT   07 41 34.5   +19 31 23     3.727    2.746   12.8    4.7   272   12.1 
2026-07-31 00:00 UT   07 43 20.7   +19 28 11     3.724    2.746   13.3    4.9   272   12.1 
2026-08-01 00:00 UT   07 45 06.7   +19 24 55     3.721    2.746   13.8    5.1   273   12.1 
2026-08-02 00:00 UT   07 46 52.6   +19 21 35     3.718    2.746   14.4    5.3   273   12.1 
2026-08-03 00:00 UT   07 48 38.3   +19 18 11     3.714    2.746   14.9    5.5   274   12.1 
2026-08-04 00:00 UT   07 50 23.9   +19 14 43     3.711    2.746   15.4    5.6   274   12.1 
2026-08-05 00:00 UT   07 52 09.4   +19 11 12     3.707    2.746   16.0    5.8   275   12.2 
2026-08-06 00:00 UT   07 53 54.7   +19 07 36     3.704    2.746   16.5    6.0   275   12.2 
2026-08-07 00:00 UT   07 55 39.8   +19 03 57     3.700    2.746   17.0    6.2   276   12.2 
2026-08-08 00:00 UT   07 57 24.8   +19 00 14     3.696    2.746   17.6    6.4   276   12.2 
2026-08-09 00:00 UT   07 59 09.6   +18 56 27     3.692    2.746   18.1    6.6   276   12.2 
2026-08-10 00:00 UT   08 00 54.2   +18 52 36     3.687    2.746   18.6    6.8   277   12.2 
2026-08-11 00:00 UT   08 02 38.7   +18 48 42     3.683    2.746   19.2    7.0   277   12.2 
2026-08-12 00:00 UT   08 04 22.9   +18 44 44     3.679    2.746   19.7    7.2   277   12.2 
2026-08-13 00:00 UT   08 06 07.0   +18 40 43     3.674    2.746   20.3    7.3   278   12.2 
2026-08-14 00:00 UT   08 07 50.9   +18 36 38     3.669    2.746   20.8    7.5   278   12.2 
2026-08-15 00:00 UT   08 09 34.6   +18 32 30     3.665    2.746   21.4    7.7   278   12.2 
2026-08-16 00:00 UT   08 11 18.0   +18 28 18     3.660    2.746   21.9    7.9   279   12.2 


    Terminology:
            
    delta:  distance between minor planet and earth in AU
    radius: distance between minor planet and sun in AU
    magn:   magnitude (brightness) estimate    
    ra:     right ascension in hours (24h = 360deg)
    dec:    declination in degrees
    elong:  elongation in degrees (angle sun-earth-minor planet)    
    phase:  phase angle in degrees (angle sun-minor planet-earth)        
    AU:     Astronomical Unit (mean distance between earth and sun: 149597870.7 km
    

Orbital elements provided by the MPC (Minor Planet Center).
Calculations by a modified version of AAPlus, a C# implementation of the AA+ project by PJ Naughter from the algorithms presented in the book "Astronomical Algorithms" by Jean Meeus.
NGC2000 dso catalog and star labels from VizieR as provided by the Strasbourg astronomical Data Center.
Tycho2 catalog from the ESO archive.